Weather History for Long Beach, CA

Change the Weather History Date:

Monday, March 10, 2014

  Actual Average Record
Temperature  
Mean Temperature 66 °F 59 °F  
Max Temperature 77 °F 68 °F 92 °F (1997)
Min Temperature 54 °F 50 °F 36 °F (1962)
Degree Days  
Heating Degree Days 0 6  
Month to date heating degree days 30 63  
Since 1 July heating degree days 608 954  
Cooling Degree Days 1 0  
Month to date cooling degree days 10 0  
Year to date cooling degree days 25 8  
Growing Degree Days 16 (Base 50)    
Moisture  
Dew Point 42 °F    
Average Humidity 51    
Maximum Humidity 78    
Minimum Humidity 23    
Precipitation  
Precipitation 0.00 in 0.08 in 1.65 in (1995)
Month to date precipitation 0.44 0.81  
Year to date precipitation 2.79 6.50  
Since 1 July precipitation 4.10 10.32  
Sea Level Pressure  
Sea Level Pressure 30.03 in    
Wind  
Wind Speed 3 mph (South)    
Max Wind Speed 10 mph    
Max Gust Speed 14 mph    
Visibility 10 miles    
Events      
T = Trace of Precipitation, MM = Missing Value Source: NWS Daily Summary

Daily Weather History Graph

Daily Weather History Graph

Search for Another Location

Airport:

Trip Planner

Search our weather history database for the weather conditions in past years. The results will help you decide how hot, cold, wet, or windy it might be!

Date:

Astronomy

Mar. 10, 2014 Rise Set
Actual Time 7:09 AM PDT 6:56 PM PDT
Civil Twilight 6:44 AM PDT 7:21 PM PDT
Nautical Twilight 6:15 AM PDT 7:50 PM PDT
Astronomical Twilight 5:46 AM PDT 8:19 PM PDT
Moon 1:55 PM PDT (3/10) 3:13 AM PDT (3/10)
Length of Visible Light 12h 36m
Length of Day
11h 47m
Waxing Gibbous, 71% of the Moon is Illuminated
Mar 10
Waxing Gibbous
Mar 16
Full
Mar 23
Last Quarter
Mar 30
New
Apr 7
First Quarter

Hourly Weather History & Observations

Time (PDT) Temp. Dew Point Humidity Pressure Visibility Wind Dir Wind Speed Gust Speed Precip Events Conditions
12:53 AM 63.0 °F 37.9 °F 40% 30.06 in 10.0 mi Calm Calm - N/A   Clear
1:53 AM 60.1 °F 39.9 °F 47% 30.06 in 10.0 mi Calm Calm - N/A   Clear
2:53 AM 59.0 °F 39.9 °F 49% 30.05 in 10.0 mi Calm Calm - N/A   Clear
3:53 AM 57.9 °F 39.9 °F 51% 30.04 in 10.0 mi Calm Calm - N/A   Clear
4:53 AM 57.0 °F 39.0 °F 51% 30.03 in 10.0 mi Calm Calm - N/A   Clear
5:53 AM 57.0 °F 39.0 °F 51% 30.03 in 10.0 mi Calm Calm - N/A   Clear
6:53 AM 55.9 °F 37.0 °F 49% 30.04 in 10.0 mi Calm Calm - N/A   Clear
7:53 AM 55.0 °F 39.9 °F 57% 30.06 in 10.0 mi Calm Calm - N/A   Clear
8:53 AM 63.0 °F 37.0 °F 38% 30.08 in 10.0 mi Calm Calm - N/A   Clear
9:53 AM 68.0 °F 39.0 °F 35% 30.08 in 10.0 mi East 4.6 mph - N/A   Clear
10:53 AM 72.0 °F 37.9 °F 29% 30.08 in 10.0 mi ESE 3.5 mph - N/A   Clear
11:53 AM 72.0 °F 46.9 °F 41% 30.07 in 10.0 mi South 4.6 mph - N/A   Clear
12:53 PM 75.0 °F 41.0 °F 29% 30.05 in 10.0 mi South 4.6 mph - N/A   Clear
1:53 PM 75.9 °F 36.0 °F 23% 30.03 in 10.0 mi SSW 8.1 mph - N/A   Clear
2:53 PM 73.9 °F 37.0 °F 26% 30.01 in 10.0 mi SSW 8.1 mph - N/A   Clear
3:53 PM 75.0 °F 39.0 °F 27% 29.98 in 10.0 mi South 8.1 mph - N/A   Clear
4:53 PM 75.0 °F 37.9 °F 26% 29.98 in 10.0 mi South 8.1 mph - N/A   Clear
5:53 PM 72.0 °F 44.1 °F 37% 29.98 in 10.0 mi NW 9.2 mph - N/A   Clear
6:53 PM 68.0 °F 45.0 °F 43% 29.99 in 10.0 mi NW 6.9 mph - N/A   Clear
7:53 PM 66.0 °F 46.9 °F 50% 30.00 in 10.0 mi Calm Calm - N/A   Clear
8:53 PM 64.0 °F 51.1 °F 63% 29.99 in 10.0 mi SSE 3.5 mph - N/A   Clear
9:53 PM 62.1 °F 53.1 °F 72% 29.99 in 10.0 mi SE 3.5 mph - N/A   Clear
10:53 PM 60.1 °F 53.1 °F 78% 30.00 in 10.0 mi Calm Calm - N/A   Clear
11:53 PM 60.1 °F 54.0 °F 80% 30.00 in 10.0 mi SSW 3.5 mph - N/A   Clear